Simultaneous Nadir Overpasses (SNOs) Predictions

Prediction of SNOs between GOES-16 and METOP-B Satellite Orbit:

Table of predicted SNOs for the next 14.0 days since TLE Epoch: 1/27/2024
Index Date Time (GOES-16) GOES-16 Lat,Lon METOP-B Lat,Lon Distance(km) Time Diff (sec)
1 01/29/2024 02:24:36 -0.02, -75.21 0.05, -75.01 23.37 80
2 01/30/2024 14:46:10 0.02, -75.25 0.97, -79.59 494.19 80
3 01/31/2024 14:22:53 0.02, -75.26 -0.15, -74.61 74.76 80
4 02/02/2024 02:44:36 -0.02, -75.25 -0.88, -79.22 452.14 80
5 02/03/2024 02:21:18 -0.02, -75.26 0.19, -74.23 116.82 80
6 02/04/2024 14:40:12 0.02, -75.30 0.82, -78.81 400.42 80
7 02/05/2024 14:22:15 0.01, -75.32 -0.31, -73.83 168.74 80
8 02/07/2024 02:41:18 -0.02, -75.31 -0.69, -78.45 357.57 80
9 02/08/2024 02:17:59 -0.01, -75.32 0.38, -73.46 211.39 80
10 02/09/2024 14:36:54 0.00, -75.37 0.61, -78.05 305.42 80
